NOAA 16 DEB, 41248

Orbit data source: Space-Track

NOAA 16 DEB, 41248 is space debris in SSO originally from a launch on Thu, 21 Sep 2000 UTC launched from the Air Force Western Test Range (AFWTR). Debris objects in space refer to the collection of defunct objects orbiting the Earth. Examples of debris include non-operational satellites, rocket bodies, and fragments generated from explosions, collisions, or faulty payload assembly.

Loading next visibility...
Identifier
41248, 2000-055EY
Orbit
SSO
Country
Flag of USUS
Related business
Manufacturer
Unknown
Mission
Spacecraft
Bus & Motor
Unknown
Mass
Unknown
Launch date (UTC)
2000-09-21 (25 years ago)
Launch vehicle
Unknown
Launch site
Air Force Western Test Range (AFWTR)
Object type
Payload
Rocket body
Debris
Shape & HBR
Unknown shape, 0.1 m
Radar Cross Section
Small (<0.1 m²)

Expand to show TLE details & history
Last TLE update: 8 hours ago

TLE from 8 hours ago
0 NOAA 16 DEB
1 41248U 00055EY  25286.96259350  .00008675  00000-0  43648-2 0  9994
2 41248  98.8638 294.3745 0072833  54.6477 306.1475 14.15259345498728
Epoch: 2025-10-13T23:06Z
TLE epoch observation values (Epoch: 2025-10-13T23:06:08.078Z)
Latitude
-0.00003°
Longitude
-74.917°
Altitude
813.562 km
Speed
7.462 km/s
True Right ascension
19h 37m 29s
True Declination
0° 00' 00"
Sunlit
Object was in daylight at epoch
Visualization orbit readout
Latitude
Unknown
Longitude
Unknown
Altitude
Unknown
Speed
Unknown
Apparent Right ascension
Unknown
Apparent Declination
Unknown
Sunlit
N/A
Visualization observer readout
Local Sidereal Time
01:59:20
Azimuth
Unknown
Elevation
Unknown
Doppler factor
Unknown
Orbital elements
Apogee altitude
891.164 km
Perigee altitude
786.041 km
Semi-major axis
7,216.739 km
Eccentricity
0.00728
Inclination
98.8638°
RAAN
294.3745°
Arg. of periapsis
54.6477°
True anomaly
305.46993°
Mean anomaly
306.1475°
Eccentric anomaly
305.80908°
Mean motion
3.54023 °/min
Orbital period
101.69 mins
BSTAR
0.0043648
Loading maneuver chart data...
Computing Atmospheric mass density...
Loading historical data...
Loading historical data...
Loading historical data...
Loading historical data...
Loading historical data...
Loading historical data...
Loading historical data...

Documentation

Showing up to 5 results
|